�������l�o���
Date,Time,MP-1(��Sv/h),MP-2(��Sv/h),MP-3(��Sv/h),MP-4(��Sv/h),MP-5(��Sv/h),MP-6(��Sv/h),MP-7(��Sv/h),MP-8(��Sv/h),����,����(m/s),���J
2018/11/03,00:00,0.790,1.197,0.840,1.499,1.088,0.459,0.809,0.765,���쐼,3.3,��
2018/11/03,00:10,0.790,1.199,0.838,1.499,1.089,0.460,0.809,0.765,���쐼,3.5,��
2018/11/03,00:20,0.791,1.200,0.838,1.503,1.088,0.459,0.809,0.766,���쐼,4.0,��
2018/11/03,00:30,0.790,1.197,0.836,1.504,1.087,0.458,0.808,0.765,���쐼,3.1,��
2018/11/03,00:40,0.789,1.197,0.839,1.500,1.089,0.458,0.808,0.764,�쐼,3.1,��
2018/11/03,00:50,0.788,1.199,0.839,1.500,1.089,0.458,0.809,0.766,���쐼,2.6,��
2018/11/03,01:00,0.789,1.198,0.839,1.501,1.089,0.458,0.809,0.766,���쐼,2.3,��
2018/11/03,01:10,0.790,1.198,0.836,1.500,1.087,0.460,0.810,0.766,���쐼,2.0,��
2018/11/03,01:20,0.789,1.197,0.836,1.502,1.088,0.459,0.809,0.765,���쐼,2.8,��
2018/11/03,01:30,0.790,1.197,0.837,1.501,1.087,0.459,0.807,0.766,���쐼,2.8,��
2018/11/03,01:40,0.791,1.198,0.839,1.501,1.084,0.458,0.809,0.765,���쐼,3.0,��
2018/11/03,01:50,0.788,1.201,0.839,1.501,1.088,0.458,0.808,0.766,���쐼,3.4,��
2018/11/03,02:00,0.789,1.197,0.839,1.502,1.088,0.458,0.808,0.767,�쐼,2.9,��
2018/11/03,02:10,0.788,1.196,0.836,1.500,1.088,0.459,0.808,0.765,�쐼,3.2,��
2018/11/03,02:20,0.788,1.196,0.840,1.500,1.086,0.458,0.809,0.764,���쐼,2.8,��
2018/11/03,02:30,0.788,1.198,0.839,1.499,1.085,0.459,0.809,0.766,�쐼,3.1,��
2018/11/03,02:40,0.788,1.196,0.839,1.499,1.085,0.458,0.808,0.765,�쐼,2.6,��
2018/11/03,02:50,0.791,1.197,0.838,1.502,1.088,0.458,0.809,0.766,���쐼,2.6,��
2018/11/03,03:00,0.788,1.195,0.838,1.502,1.085,0.459,0.810,0.765,���쐼,2.0,��
2018/11/03,03:10,0.787,1.196,0.838,1.501,1.085,0.458,0.809,0.765,���쐼,2.0,��
2018/11/03,03:20,0.788,1.196,0.837,1.501,1.087,0.460,0.807,0.765,���쐼,1.7,��
2018/11/03,03:30,0.788,1.196,0.837,1.499,1.088,0.458,0.810,0.765,��,2.5,��
2018/11/03,03:40,0.787,1.196,0.837,1.500,1.085,0.459,0.808,0.766,��,3.0,��
2018/11/03,03:50,0.786,1.196,0.839,1.500,1.085,0.456,0.809,0.766,���쐼,2.0,��
2018/11/03,04:00,0.785,1.197,0.837,1.499,1.086,0.457,0.809,0.764,���쐼,2.3,��
2018/11/03,04:10,0.787,1.195,0.838,1.500,1.087,0.459,0.809,0.765,���쐼,2.5,��
2018/11/03,04:20,0.788,1.194,0.838,1.501,1.088,0.458,0.809,0.767,��,3.0,��
2018/11/03,04:30,0.787,1.197,0.838,1.502,1.088,0.457,0.809,0.764,���쐼,2.2,��
2018/11/03,04:40,0.788,1.195,0.838,1.500,1.089,0.458,0.809,0.765,��,2.3,��
2018/11/03,04:50,0.787,1.195,0.837,1.500,1.086,0.459,0.808,0.764,���쐼,2.3,��
2018/11/03,05:00,0.789,1.194,0.839,1.500,1.088,0.459,0.808,0.764,���쐼,2.9,��
2018/11/03,05:10,0.788,1.194,0.839,1.500,1.083,0.458,0.809,0.765,��,3.3,��
2018/11/03,05:20,0.788,1.195,0.838,1.500,1.086,0.459,0.810,0.765,���k��,2.9,��
2018/11/03,05:30,0.788,1.196,0.839,1.500,1.085,0.459,0.807,0.764,���k��,2.5,��
2018/11/03,05:40,0.787,1.195,0.838,1.500,1.087,0.459,0.808,0.764,���k��,3.0,��
2018/11/03,05:50,0.789,1.199,0.837,1.501,1.087,0.457,0.809,0.766,���k��,3.5,��
2018/11/03,06:00,0.787,1.195,0.839,1.500,1.087,0.458,0.809,0.763,���k��,2.6,��
2018/11/03,06:10,0.787,1.196,0.839,1.500,1.086,0.459,0.809,0.766,���k��,3.1,��
2018/11/03,06:20,0.789,1.195,0.838,1.500,1.084,0.458,0.808,0.764,��,2.6,��
2018/11/03,06:30,0.787,1.194,0.837,1.501,1.086,0.458,0.809,0.765,��,3.8,��
2018/11/03,06:40,0.787,1.195,0.838,1.498,1.085,0.459,0.809,0.765,��,4.0,��
2018/11/03,06:50,0.788,1.197,0.837,1.500,1.086,0.458,0.808,0.767,��,4.1,��
2018/11/03,07:00,0.790,1.195,0.839,1.500,1.088,0.458,0.809,0.764,���k��,2.8,��
2018/11/03,07:10,0.788,1.197,0.838,1.499,1.088,0.460,0.811,0.764,���k��,2.6,��
2018/11/03,07:20,0.789,1.196,0.838,1.500,1.086,0.459,0.810,0.764,�k��,3.6,��
2018/11/03,07:30,0.789,1.197,0.837,1.500,1.087,0.459,0.811,0.766,�k��,3.3,��
2018/11/03,07:40,0.790,1.197,0.838,1.502,1.088,0.459,0.811,0.766,�k��,3.4,��
2018/11/03,07:50,0.788,1.196,0.838,1.500,1.088,0.458,0.810,0.766,�k��,3.7,��
2018/11/03,08:00,0.789,1.198,0.839,1.500,1.088,0.460,0.809,0.766,�k��,3.3,��
2018/11/03,08:10,0.790,1.199,0.838,1.500,1.087,0.459,0.808,0.766,�k��,2.8,��
2018/11/03,08:20,0.789,1.197,0.841,1.500,1.088,0.461,0.810,0.765,�k�k��,3.1,��
2018/11/03,08:30,0.790,1.197,0.838,1.501,1.089,0.460,0.811,0.765,�k��,3.3,��
2018/11/03,08:40,0.792,1.195,0.838,1.500,1.086,0.459,0.810,0.767,�k�k��,2.6,��
2018/11/03,08:50,0.791,1.198,0.841,1.503,1.088,0.460,0.809,0.765,�k�k��,1.7,��
2018/11/03,09:00,0.794,1.200,0.840,1.504,1.087,0.459,0.808,0.768,�k��,1.7,��
2018/11/03,09:10,0.791,1.193,0.841,1.502,1.086,0.460,0.809,0.767,�k,2.0,��
2018/11/03,09:20,0.792,1.196,0.840,1.502,1.089,0.460,0.811,0.765,�k,1.5,��
2018/11/03,09:30,0.789,1.200,0.841,1.502,1.089,0.460,0.809,0.765,���k��,1.7,��
2018/11/03,09:40,0.788,1.198,0.840,1.501,1.090,0.460,0.810,0.767,�k�k��,2.3,��
2018/11/03,09:50,0.790,1.197,0.841,1.506,1.086,0.459,0.810,0.769,���k��,2.3,��
2018/11/03,10:00,0.791,1.201,0.840,1.506,1.084,0.459,0.810,0.769,�k��,3.3,��
2018/11/03,10:10,0.789,1.198,0.841,1.505,1.086,0.459,0.811,0.765,��,2.2,��
2018/11/03,10:20,0.790,1.199,0.840,1.502,1.088,0.458,0.809,0.768,��,2.6,��
2018/11/03,10:30,0.792,1.196,0.838,1.502,1.088,0.458,0.810,0.769,���k��,2.8,��
2018/11/03,10:40,0.791,1.197,0.839,1.503,1.088,0.457,0.810,0.767,���k��,2.6,��
2018/11/03,10:50,0.793,1.201,0.839,1.504,1.090,0.459,0.811,0.767,���k��,3.1,��
2018/11/03,11:00,0.792,1.202,0.837,1.503,1.088,0.458,0.813,0.767,���k��,3.2,��
2018/11/03,11:10,0.794,1.199,0.839,1.507,1.090,0.459,0.810,0.767,��,3.1,��
2018/11/03,11:20,0.792,1.200,0.838,1.504,1.091,0.459,0.812,0.768,���k��,3.0,��
2018/11/03,11:30,0.791,1.203,0.840,1.506,1.089,0.460,0.809,0.766,��,3.2,��
2018/11/03,11:40,0.791,1.200,0.842,1.504,1.091,0.460,0.812,0.767,��,2.6,��
2018/11/03,11:50,0.793,1.200,0.839,1.506,1.092,0.459,0.810,0.769,���쓌,3.2,��
2018/11/03,12:00,0.789,1.201,0.838,1.504,1.089,0.462,0.812,0.767,��,2.6,��
2018/11/03,12:10,0.792,1.200,0.840,1.505,1.091,0.460,0.808,0.766,���쓌,3.0,��
2018/11/03,12:20,0.793,1.201,0.838,1.504,1.092,0.461,0.809,0.765,���쓌,3.2,��
2018/11/03,12:30,0.792,1.201,0.839,1.507,1.088,0.461,0.811,0.765,���쓌,3.1,��
2018/11/03,12:40,0.791,1.203,0.839,1.503,1.095,0.462,0.812,0.766,���쓌,2.9,��
2018/11/03,12:50,0.793,1.201,0.840,1.507,1.094,0.461,0.811,0.765,���쓌,3.5,��
2018/11/03,13:00,0.791,1.202,0.838,1.503,1.093,0.460,0.811,0.765,�쓌,3.2,��
2018/11/03,13:10,0.791,1.201,0.839,1.507,1.095,0.461,0.811,0.766,�쓌,3.5,��
2018/11/03,13:20,0.794,1.202,0.841,1.504,1.094,0.460,0.810,0.765,���쓌,3.1,��
2018/11/03,13:30,0.791,1.203,0.840,1.503,1.092,0.460,0.809,0.765,��쓌,2.0,��
2018/11/03,13:40,0.791,1.203,0.841,1.504,1.094,0.460,0.809,0.766,��쓌,3.0,��
2018/11/03,13:50,0.793,1.204,0.839,1.502,1.093,0.459,0.811,0.764,��,3.3,��
2018/11/03,14:00,0.793,1.200,0.842,1.506,1.095,0.460,0.811,0.766,��쓌,4.2,��
2018/11/03,14:10,0.795,1.203,0.840,1.505,1.093,0.459,0.809,0.766,��쓌,5.0,��
2018/11/03,14:20,0.792,1.202,0.840,1.503,1.092,0.460,0.811,0.765,��쓌,5.3,��
2018/11/03,14:30,0.792,1.205,0.844,1.504,1.093,0.459,0.813,0.763,��쓌,4.9,��
2018/11/03,14:40,0.794,1.202,0.840,1.505,1.093,0.459,0.811,0.765,��쓌,5.3,��
2018/11/03,14:50,0.794,1.202,0.843,1.505,1.093,0.461,0.812,0.766,��쓌,4.9,��
2018/11/03,15:00,0.793,1.203,0.840,1.507,1.093,0.458,0.813,0.767,��쓌,5.0,��
2018/11/03,15:10,0.794,1.203,0.843,1.506,1.094,0.460,0.814,0.766,��쓌,4.7,��
2018/11/03,15:20,0.791,1.209,0.842,1.504,1.094,0.461,0.812,0.765,��쓌,4.2,��
2018/11/03,15:30,0.793,1.208,0.841,1.504,1.094,0.461,0.813,0.763,��쓌,4.9,��
2018/11/03,15:40,0.794,1.208,0.840,1.506,1.093,0.461,0.813,0.765,��쓌,5.4,��
2018/11/03,15:50,0.791,1.208,0.839,1.503,1.092,0.462,0.814,0.767,��쓌,4.6,��
2018/11/03,16:00,0.793,1.205,0.839,1.506,1.095,0.462,0.813,0.767,��,4.5,��
2018/11/03,16:10,0.792,1.206,0.840,1.504,1.092,0.462,0.812,0.767,��,4.5,��
2018/11/03,16:20,0.791,1.205,0.841,1.507,1.091,0.461,0.812,0.768,��,5.1,��
2018/11/03,16:30,0.792,1.208,0.839,1.506,1.092,0.462,0.813,0.769,��,5.6,��
2018/11/03,16:40,0.792,1.208,0.840,1.505,1.094,0.462,0.813,0.767,��쐼,5.0,��
2018/11/03,16:50,0.793,1.210,0.841,1.503,1.095,0.463,0.812,0.766,��,5.0,��
2018/11/03,17:00,0.792,1.209,0.843,1.503,1.093,0.463,0.814,0.768,��쐼,4.3,��
2018/11/03,17:10,0.794,1.209,0.844,1.504,1.095,0.462,0.812,0.767,��쐼,4.9,��
2018/11/03,17:20,0.795,1.208,0.843,1.506,1.096,0.462,0.813,0.769,��쐼,4.8,��
2018/11/03,17:30,0.794,1.208,0.844,1.504,1.097,0.463,0.813,0.767,��쐼,4.9,��
2018/11/03,17:40,0.795,1.209,0.844,1.503,1.095,0.462,0.812,0.768,��쐼,5.0,��
2018/11/03,17:50,0.795,1.207,0.841,1.503,1.097,0.462,0.813,0.769,��쐼,5.2,��
2018/11/03,18:00,0.794,1.206,0.844,1.504,1.095,0.463,0.812,0.765,��쐼,4.9,��
2018/11/03,18:10,0.794,1.206,0.843,1.508,1.097,0.463,0.812,0.767,��쐼,5.0,��
2018/11/03,18:20,0.795,1.205,0.843,1.503,1.094,0.462,0.812,0.768,��쐼,4.9,��
2018/11/03,18:30,0.796,1.205,0.843,1.504,1.097,0.463,0.813,0.767,��쐼,5.1,��
2018/11/03,18:40,0.793,1.206,0.843,1.507,1.096,0.463,0.813,0.765,��쐼,5.3,��
2018/11/03,18:50,0.794,1.204,0.844,1.505,1.095,0.461,0.810,0.768,��쐼,5.2,��
2018/11/03,19:00,0.797,1.206,0.841,1.504,1.096,0.462,0.811,0.767,��쐼,5.5,��
2018/11/03,19:10,0.794,1.206,0.844,1.504,1.096,0.463,0.811,0.768,��쐼,4.9,��
2018/11/03,19:20,0.795,1.204,0.844,1.506,1.094,0.461,0.811,0.767,��쐼,5.1,��
2018/11/03,19:30,0.796,1.205,0.843,1.505,1.095,0.462,0.814,0.767,��쐼,5.1,��
2018/11/03,19:40,0.793,1.202,0.843,1.508,1.096,0.463,0.812,0.766,�쐼,4.8,��
2018/11/03,19:50,0.794,1.204,0.844,1.507,1.094,0.461,0.812,0.768,��쐼,5.1,��
2018/11/03,20:00,0.795,1.204,0.843,1.503,1.094,0.461,0.811,0.766,��쐼,5.5,��
2018/11/03,20:10,0.796,1.204,0.843,1.506,1.093,0.462,0.812,0.769,��쐼,5.4,��
2018/11/03,20:20,0.795,1.205,0.843,1.504,1.095,0.463,0.813,0.768,�쐼,5.9,��
2018/11/03,20:30,0.796,1.205,0.844,1.507,1.095,0.460,0.812,0.768,��쐼,5.7,��
2018/11/03,20:40,0.795,1.203,0.844,1.502,1.093,0.461,0.814,0.768,��쐼,5.7,��
2018/11/03,20:50,0.795,1.205,0.845,1.504,1.093,0.460,0.813,0.769,�쐼,5.2,��
2018/11/03,21:00,0.794,1.205,0.843,1.505,1.094,0.464,0.812,0.766,�쐼,4.2,��
2018/11/03,21:10,0.792,1.205,0.844,1.508,1.094,0.462,0.812,0.767,���쐼,4.3,��
2018/11/03,21:20,0.793,1.205,0.842,1.503,1.096,0.460,0.813,0.767,��,4.2,��
2018/11/03,21:30,0.794,1.201,0.844,1.504,1.095,0.462,0.811,0.766,��,3.3,��
2018/11/03,21:40,0.795,1.204,0.843,1.504,1.093,0.461,0.811,0.767,��,3.5,��
2018/11/03,21:50,0.796,1.203,0.842,1.503,1.093,0.462,0.813,0.767,��,4.2,��
2018/11/03,22:00,0.793,1.204,0.845,1.503,1.094,0.462,0.810,0.766,���쐼,4.1,��
2018/11/03,22:10,0.793,1.200,0.842,1.504,1.094,0.461,0.810,0.768,���쐼,4.1,��
2018/11/03,22:20,0.795,1.202,0.841,1.502,1.093,0.462,0.810,0.766,���쐼,4.6,��
2018/11/03,22:30,0.795,1.201,0.840,1.504,1.093,0.460,0.810,0.768,���쐼,4.6,��
2018/11/03,22:40,0.793,1.202,0.844,1.503,1.091,0.461,0.809,0.767,���쐼,4.3,��
2018/11/03,22:50,0.792,1.201,0.843,1.502,1.093,0.461,0.812,0.765,���쐼,3.5,��
2018/11/03,23:00,0.794,1.202,0.843,1.503,1.095,0.462,0.812,0.766,���쐼,3.3,��
2018/11/03,23:10,0.794,1.205,0.840,1.503,1.093,0.461,0.812,0.768,�쐼,2.3,��
2018/11/03,23:20,0.792,1.206,0.844,1.502,1.093,0.463,0.812,0.768,�쐼,2.9,��
2018/11/03,23:30,0.793,1.202,0.842,1.502,1.096,0.461,0.811,0.765,���쐼,1.7,��
2018/11/03,23:40,0.794,1.200,0.843,1.502,1.095,0.461,0.810,0.767,�쐼,1.1,��
2018/11/03,23:50,0.793,1.201,0.844,1.500,1.091,0.462,0.811,0.766,�쐼,1.2,��
